Location: Devils Tower National Monument
(44.5904°N, 104.7201°W)
Time: 10:17:52
(UTC-07:00)

ISS - Visible Passes

Search period start: 20 January 2020 00:00
Search period end: 30 January 2020 00:00
Orbit: 415 x 421 km, 51.6° (Epoch: 21 January)

Date Brightness Start Highest point End Pass type
(mag) Time Alt. Az. Time Alt. Az. Time Alt. Az.
20 Jan -2.1 18:08:29 10° S 18:11:01 20° SE 18:11:36 19° ESE visible
20 Jan -0.5 19:44:11 10° WSW 19:44:33 13° WSW 19:44:33 13° WSW visible
21 Jan -1.4 17:21:46 10° SSE 17:23:12 12° SE 17:24:39 10° ESE visible
21 Jan -3.1 18:56:09 10° SW 18:58:48 53° SW 18:58:48 53° SW visible
22 Jan -3.4 18:08:14 10° SW 18:11:31 51° SE 18:12:57 28° E visible
22 Jan -0.5 19:45:17 10° W 19:45:54 14° W 19:45:54 14° W visible
23 Jan -2.9 18:57:01 10° W 18:59:59 44° NW 18:59:59 44° NW visible
24 Jan -3.6 18:08:49 10° WSW 18:12:09 66° NNW 18:14:00 24° NE visible
24 Jan -0.5 19:46:30 10° WNW 19:46:56 13° WNW 19:46:56 13° WNW visible
25 Jan -2.2 18:58:09 10° WNW 19:00:54 28° NNW 19:00:54 28° NNW visible
26 Jan -2.6 18:09:49 10° W 18:12:57 35° NNW 18:14:50 19° NE visible
26 Jan -0.5 19:47:33 10° NW 19:47:46 11° NW 19:47:46 11° NW visible
27 Jan -1.9 18:59:17 10° WNW 19:01:40 23° NNW 19:01:40 23° NNW visible
28 Jan -2.2 18:10:56 10° WNW 18:13:49 25° N 18:15:33 17° NE visible
28 Jan -0.5 19:48:19 10° NW 19:48:28 11° NW 19:48:28 11° NW visible
29 Jan -2.0 19:00:09 10° NW 19:02:21 23° NNW 19:02:21 23° NNW visible
